Regional Weather Roundup
Issued by NWS Newport/Morehead, NC

Current Version | Previous Version | Graphics & Text | Print | Product List | Glossary Off
Versions: 1 2 3 4 5 6 7 8 9 10 11 12 13 14 15 16 17 18 19 20 21 22 23 24 25 26 27 28 29 30 31 32 33 34 35 36 37 38 39 40 41 42 43 44 45 46 47 48 49 50
000 ASUS42 KMHX 051912 RWRMHX WEATHER ROUNDUP FOR EASTERN NORTH CAROLINA NATIONAL WEATHER SERVICE NEWPORT/MOREHEAD CITY NC 200 PM EST MON DEC 05 2016 NOTE: "FAIR" INDICATES FEW OR NO CLOUDS BELOW 12,000 FEET WITH NO SIGNIFICANT WEATHER AND/OR OBSTRUCTIONS TO VISIBILITY NCZ015>017-031-032-045>047-102-103-052000- NORTH COAST CITY SKY/WX TMP DP RH WIND PRES REMARKS EDENTON PTSUNNY 57 49 74 N10 29.99F ELIZABETH CITY SUNNY 57 47 69 N14 29.99S KITTY HAWK MOCLDY 53 52 95 N7 29.97R MANTEO CLOUDY 54 50 85 N12 29.98S $$ NCZ045>047-081-094-103-104-052000- CENTRAL COAST CITY SKY/WX TMP DP RH WIND PRES REMARKS FRISCO CLOUDY 54 51 90 N8 29.97R $$ NCZ095-097-098-100-101-052000- SOUTHERN COAST CITY SKY/WX TMP DP RH WIND PRES REMARKS BEAUFORT MOSUNNY 60 51 72 N15 29.97R CEDAR ISLAND NOT AVBL JACKSONVILLE CLOUDY 58 49 72 N15 29.96F PINEY ISLAND PTCLDY N/A N/A N/A N12 29.97R WILMINGTON CLOUDY 59 51 75 N13 29.96F $$ NCZ011>013-027>030-043-044-078>080-089-090>093-098-052000- COASTAL PLAIN CITY SKY/WX TMP DP RH WIND PRES REMARKS AHOSKIE SUNNY 54 45 72 N10 30.01S CLINTON MOSUNNY 60 49 66 N8 29.99S ELIZABETHTOWN MOSUNNY 59 48 67 N5 29.98F GOLDSBORO MOSUNNY 60 46 61 VRB7 29.97S GREENVILLE SUNNY 55 46 71 N6 30.00F HAVELOCK MOSUNNY 59 50 72 N9 29.98R KENANSVILLE MOSUNNY 59 48 67 N9G16 29.98S KINSTON MOSUNNY 61 46 59 N10G16 29.99S NEW BERN MOSUNNY 59 49 69 N10 29.98S RICHLANDS CLOUDY 57 49 74 N8 29.98S ROCKY MOUNT SUNNY 59 45 59 N12 29.99F WASHINGTON CLOUDY 57 47 69 N9 29.98F WHITEVILLE MOSUNNY 59 49 69 N5 29.97F $$ AMZ130-135-150-152-154-156-158-170-250-252-270-ANZ085-086-088-633-658-670-052000- MARINE OBSERVATIONS STATION/POSITION TIME TEMP WIND PRES WAVE SWELL AIR SEA DIR/SP/G HT/PER HT/PER (UTC) (F) (DEG/KT/KT) (MB) (FT/S) (FT/S) CHESAPEAKE LIGHT NOT AVBL 64 E VA BEACH 1850 55 60 350/ 21/ 25 1013.5 5/ 5 DUCK 1836 52 54 20/ 21/ 22 1014.2 2 E DUCK NOT AVBL OREGON INLET 1836 53 56 340/ 14/ 19 1014.7 13E OREGON INLT NOT AVBL HATTERAS CG 1836 53 60 10/ 14/ 16 1014.2 DIAMOND BUOY 1850 57 72 360/ 17/ 21 1014.0 6/ 8 3/ 8 CAPE LOOKOUT 1900 56 360/ 9/ 12 1014.5 BEAUFORT LAB 1836 56 56 360/ 10/ 12 1013.5 30 SE NEW RVR IN 1808 53 71 10/ 12/ 17 1013.4 30 SE NEW RVR IN NOT AVBL 27 SE WRIGHTSVLE 1808 57 68 360/ 14/ 21 1014.5 5 SE WRIGHTSVLE 1808 54 63 360/ 10/ 19 1014.0 225 S CAPE HAT 1850 73 73 190/ 21/ 25 1013.9 7/ 6 2/11 41 SE CHARLESTON 1850 64 74 340/ 10/ 12 1013.8 6/ 7 5/ 7 $$

USA.gov is the U.S. government's official web portal to all federal, state and local government web resources and services.